Date String (YYYY-MM-DD hh:mm:ss) UTC,Instrument flags,absolute air pressure of the measurement (hPa),sample flow rate (lpm),inlet stack bypass flow (lpm),air temperature of the measurement (°C),ambient temperature measured by the external sensor (°C),aerosol sample conditioner tube jacket temperature (°C),OPC LED temperature (°C),internal box temperature (°C),relative humidity of the measurement (%),span deviation,mass concentration of particles derived from Lorenz-Mie calculation of OPC scattering (μg/m³),mass concentration of particles derived from Lorenz-Mie calculation of OPC scattering (μg/m³),mass concentration of particles derived from Lorenz-Mie calculation of OPC scattering (μg/m³)
DateTimeUTC,F1_M11,P_M11,Q1_M11,Q2_M11,T1_M11,T2_M11,T3_M11,T4_M11,T5_M11,U1_M11,ZSPAN_M11,X0_M11,X2_M11,X1_M11
2024-02-23 18:00:00,SystemResetWarning,0832.6,5.00,000.00,019.8,019.3,000.0,028.2,021.6,14.9,0000.0,0003.64,0002.20,0001.87
2024-02-23 18:01:00,SystemResetWarning,0832.6,5.00,000.00,019.8,019.3,000.0,028.2,021.5,15.0,0000.0,0003.96,0002.15,0001.85
2024-02-23 18:02:00,SystemResetWarning,0832.6,4.99,000.00,019.8,019.3,000.0,028.2,021.5,14.6,0000.0,0003.88,0002.12,0001.83
2024-02-23 18:03:00,SystemResetWarning,0832.7,5.00,000.00,019.8,019.3,000.0,028.2,021.6,14.1,0000.0,0004.51,0002.07,0001.83
2024-02-23 18:04:00,SystemResetWarning,0832.7,5.01,000.00,019.8,019.3,000.0,028.2,021.6,13.6,0000.0,0004.91,0002.05,0001.82
2024-02-23 18:05:00,SystemResetWarning,0832.7,5.01,000.00,019.9,019.3,000.0,028.2,021.6,13.7,0000.0,0004.92,0002.03,0001.79
2024-02-23 18:06:00,SystemResetWarning,0832.7,5.00,000.00,019.9,019.3,000.0,028.2,021.6,14.0,0000.0,0004.81,0001.98,0001.76
2024-02-23 18:07:00,SystemResetWarning,0832.6,5.00,000.00,019.9,019.3,000.0,028.2,021.6,13.1,0000.0,0004.80,0001.97,0001.75
2024-02-23 18:08:00,SystemResetWarning,0832.6,5.00,000.00,019.9,019.3,000.0,028.2,021.6,13.3,0000.0,0004.80,0001.97,0001.73
2024-02-23 18:09:00,SystemResetWarning,0832.6,5.00,000.00,019.9,019.3,000.0,028.2,021.6,13.2,0000.0,0004.85,0001.98,0001.72
2024-02-23 18:10:00,SystemResetWarning,0832.6,4.99,000.00,019.9,019.4,000.0,028.2,021.6,13.4,0000.0,0005.04,0001.95,0001.69
2024-02-23 18:11:00,SystemResetWarning,0832.6,5.00,000.00,019.9,019.4,000.0,028.2,021.6,13.1,0000.0,0004.98,0001.94,0001.68
2024-02-23 18:12:00,SystemResetWarning,0832.6,4.99,000.00,019.9,019.4,000.0,028.2,021.7,13.6,0000.0,0004.43,0001.92,0001.67
2024-02-23 18:13:00,SystemResetWarning,0832.6,4.99,000.00,019.9,019.4,000.0,028.2,021.7,12.8,0000.0,0004.44,0001.90,0001.65
2024-02-23 18:14:00,SystemResetWarning,0832.5,4.99,000.00,019.9,019.4,000.0,028.2,021.7,12.6,0000.0,0003.68,0001.88,0001.62
2024-02-23 18:15:00,SystemResetWarning,0832.5,5.00,000.00,019.9,019.4,000.0,028.3,021.7,13.0,0000.0,0004.15,0001.86,0001.57
2024-02-23 18:16:00,SystemResetWarning,0832.5,5.01,000.00,019.9,019.4,000.0,028.3,021.7,13.2,0000.0,0004.52,0001.82,0001.54
2024-02-23 18:17:00,SystemResetWarning,0832.5,5.01,000.00,019.9,019.4,000.0,028.3,021.7,13.0,0000.0,0004.48,0001.79,0001.52
2024-02-23 18:18:00,SystemResetWarning,0832.5,5.00,000.00,019.9,019.4,000.0,028.3,021.7,13.4,0000.0,0004.44,0001.75,0001.47
2024-02-23 18:19:00,SystemResetWarning,0832.5,4.99,000.00,020.0,019.4,000.0,028.3,021.7,13.4,0000.0,0004.41,0001.72,0001.44
2024-02-23 18:20:00,SystemResetWarning,0832.5,4.99,000.00,020.0,019.4,000.0,028.3,021.7,12.7,0000.0,0004.33,0001.66,0001.41
2024-02-23 18:21:00,SystemResetWarning,0832.5,5.00,000.00,020.0,019.4,000.0,028.3,021.7,12.2,0000.0,0004.17,0001.62,0001.36
2024-02-23 18:22:00,SystemResetWarning,0832.5,5.00,000.00,020.0,019.4,000.0,028.3,021.7,12.4,0000.0,0004.00,0001.57,0001.33
2024-02-23 18:23:00,SystemResetWarning,0832.5,5.00,000.00,020.0,019.4,000.0,028.3,021.7,12.0,0000.0,0004.38,0001.53,0001.30
2024-02-23 18:24:00,SystemResetWarning,0832.5,5.00,000.00,020.0,019.4,000.0,028.3,021.7,12.6,0000.0,0004.34,0001.51,0001.28
2024-02-23 18:25:00,SystemResetWarning,0832.5,5.00,000.00,020.0,019.4,000.0,028.3,021.7,12.7,0000.0,0004.64,0001.48,0001.26
2024-02-23 18:26:00,SystemResetWarning,0832.6,5.00,000.00,020.0,019.4,000.0,028.3,021.7,12.5,0000.0,0004.06,0001.45,0001.25
2024-02-23 18:27:00,SystemResetWarning,0832.5,5.00,000.00,020.0,019.4,000.0,028.3,021.7,12.8,0000.0,0003.83,0001.43,0001.25
2024-02-23 18:28:00,SystemResetWarning,0832.6,5.00,000.00,020.0,019.5,000.0,028.3,021.7,12.5,0000.0,0003.89,0001.43,0001.24
2024-02-23 18:29:00,SystemResetWarning,0832.5,5.00,000.00,020.0,019.5,000.0,028.3,021.7,12.8,0000.0,0003.83,0001.40,0001.23
2024-02-23 18:30:00,SystemResetWarning,0832.5,5.00,000.00,020.0,019.5,000.0,028.3,021.8,13.5,0000.0,0003.81,0001.39,0001.22
2024-02-23 18:31:00,SystemResetWarning,0832.6,5.00,000.00,020.1,019.5,000.0,028.3,021.7,13.2,0000.0,0003.83,0001.39,0001.21
2024-02-23 18:32:00,SystemResetWarning,0832.5,4.99,000.00,020.1,019.5,000.0,028.4,021.8,12.7,0000.0,0003.60,0001.38,0001.20
2024-02-23 18:33:00,SystemResetWarning,0832.5,5.00,000.00,020.1,019.5,000.0,028.3,021.8,13.0,0000.0,0003.30,0001.35,0001.19
2024-02-23 18:34:00,SystemResetWarning,0832.5,4.99,000.00,020.1,019.5,000.0,028.3,021.8,12.2,0000.0,0002.89,0001.35,0001.17
2024-02-23 18:35:00,SystemResetWarning,0832.5,5.00,000.00,020.1,019.5,000.0,028.4,021.8,12.4,0000.0,0002.98,0001.33,0001.15
2024-02-23 18:36:00,SystemResetWarning,0832.5,5.00,000.00,020.1,019.5,000.0,028.4,021.8,12.5,0000.0,0002.79,0001.32,0001.13
2024-02-23 18:37:00,SystemResetWarning,0832.5,5.00,000.00,020.1,019.6,000.0,028.4,021.8,12.0,0000.0,0003.31,0001.35,0001.12
2024-02-23 18:38:00,SystemResetWarning,0832.5,5.00,000.00,020.1,019.6,000.0,028.4,021.8,11.8,0000.0,0003.53,0001.34,0001.10
2024-02-23 18:39:00,SystemResetWarning,0832.5,5.00,000.00,020.1,019.6,000.0,028.4,021.8,12.1,0000.0,0004.49,0001.34,0001.09
2024-02-23 18:40:00,SystemResetWarning,0832.5,5.00,000.00,020.2,019.6,000.0,028.4,021.8,12.2,0000.0,0004.60,0001.35,0001.09
2024-02-23 18:41:00,SystemResetWarning,0832.5,4.99,000.00,020.2,019.6,000.0,028.4,021.8,12.2,0000.0,0004.64,0001.36,0001.10
2024-02-23 18:42:00,SystemResetWarning,0832.5,5.00,000.00,020.2,019.6,000.0,028.4,021.9,12.4,0000.0,0004.62,0001.35,0001.10
2024-02-23 18:43:00,SystemResetWarning,0832.4,5.00,000.00,020.2,019.6,000.0,028.4,021.9,12.5,0000.0,0004.63,0001.36,0001.10
2024-02-23 18:44:00,SystemResetWarning,0832.4,5.00,000.00,020.2,019.7,000.0,028.4,021.9,11.9,0000.0,0004.69,0001.38,0001.11
2024-02-23 18:45:00,SystemResetWarning,0832.4,5.00,000.00,020.2,019.7,000.0,028.4,021.9,11.8,0000.0,0004.69,0001.41,0001.12
2024-02-23 18:46:00,SystemResetWarning,0832.4,5.00,000.00,020.2,019.7,000.0,028.4,021.9,11.8,0000.0,0004.68,0001.46,0001.15
2024-02-23 18:47:00,SystemResetWarning,0832.4,5.00,000.00,020.2,019.7,000.0,028.4,021.9,12.0,0000.0,0004.77,0001.51,0001.15
2024-02-23 18:48:00,SystemResetWarning,0832.3,5.00,000.00,020.2,019.7,000.0,028.4,021.9,12.3,0000.0,0003.95,0001.47,0001.16
2024-02-23 18:49:00,SystemResetWarning,0832.3,5.01,000.00,020.2,019.7,000.0,028.5,021.9,12.8,0000.0,0004.98,0001.46,0001.17
2024-02-23 18:50:00,SystemResetWarning,0832.3,5.01,000.00,020.2,019.7,000.0,028.5,021.9,12.8,0000.0,0004.41,0001.48,0001.17
2024-02-23 18:51:00,SystemResetWarning,0832.3,5.00,000.00,020.3,019.7,000.0,028.5,021.9,12.3,0000.0,0004.73,0001.48,0001.16
2024-02-23 18:52:00,SystemResetWarning,0832.3,4.99,000.00,020.3,019.7,000.0,028.5,021.9,12.7,0000.0,0004.89,0001.51,0001.15
2024-02-23 18:53:00,SystemResetWarning,0832.3,5.00,000.00,020.3,019.7,000.0,028.5,022.0,12.9,0000.0,0004.87,0001.51,0001.14
2024-02-23 18:54:00,SystemResetWarning,0832.3,5.00,000.00,020.3,019.7,000.0,028.5,022.0,13.1,0000.0,0004.87,0001.50,0001.13
2024-02-23 18:55:00,SystemResetWarning,0832.3,5.00,000.00,020.3,019.7,000.0,028.5,022.0,12.7,0000.0,0005.22,0001.48,0001.11
2024-02-23 18:56:00,SystemResetWarning,0832.2,5.00,000.00,020.3,019.8,000.0,028.5,022.0,13.3,0000.0,0005.24,0001.46,0001.09
2024-02-23 18:57:00,SystemResetWarning,0832.3,4.99,000.00,020.3,019.8,000.0,028.5,022.0,13.2,0000.0,0005.08,0001.40,0001.08
2024-02-23 18:58:00,SystemResetWarning,0832.2,5.00,000.00,020.3,019.8,000.0,028.5,022.0,13.4,0000.0,0005.00,0001.36,0001.08
2024-02-23 18:59:00,SystemResetWarning,0832.2,5.00,000.00,020.3,019.8,000.0,028.5,022.0,13.0,0000.0,0004.98,0001.39,0001.08
